Location: Tel Aviv
(32.0670°N, 34.7670°E)
Time: 08:16:37
(UTC+03:00)

CUTE-I - Visible Passes

Search period start: 19 September 2024 00:00
Search period end: 29 September 2024 00:00
Orbit: 807 x 820 km, 98.7° (Epoch: 18 September)

Date Brightness Start Highest point End Pass type
(mag) Time Alt. Az. Time Alt. Az. Time Alt. Az.
20 Sep ? 19:44:38 10° WSW 19:46:28 12° W 19:48:19 10° WNW visible
21 Sep ? 19:19:41 10° SW 19:23:37 21° W 19:27:34 10° NW visible
22 Sep ? 06:00:27 10° NE 06:04:33 22° E 06:08:36 10° SSE visible
22 Sep ? 18:56:00 10° SSW 19:00:50 35° W 19:05:43 10° NNW visible
23 Sep ? 05:39:25 10° ENE 05:41:41 13° E 05:43:58 10° ESE visible
25 Sep ? 19:29:39 10° SW 19:32:58 17° W 19:36:19 10° NW visible
26 Sep ? 19:05:36 10° SSW 19:10:09 28° W 19:14:43 10° NW visible
27 Sep ? 05:47:50 10° ENE 05:51:03 16° E 05:54:14 10° SE visible
